Time,TemperatureF,DewpointF,PressureIn,WindDirection,WindDirectionDegrees,WindSpeedMPH,WindSpeedGustMPH,Humidity,HourlyPrecipIn,Conditions,Clouds,dailyrainin,SoftwareType,DateUTC
2013-06-04 00:02:00,76.1,73.3,29.86,East,94,4.6,4.6,91,0.00,CLR,,0.00,WeatherDisplay:10.37,2013-06-04 05:02:00,
2013-06-04 00:07:00,76.1,73.3,29.86,ENE,75,3.5,3.5,91,0.00,CLR,,0.00,WeatherDisplay:10.37,2013-06-04 05:07:00,
2013-06-04 00:12:00,76.1,73.3,29.86,ENE,75,1.1,1.1,91,0.00,CLR,,0.00,WeatherDisplay:10.37,2013-06-04 05:12:00,
2013-06-04 00:17:00,76.0,73.2,29.85,ENE,76,1.1,1.1,91,0.00,CLR,,0.00,WeatherDisplay:10.37,2013-06-04 05:17:00,
2013-06-04 00:22:00,75.9,73.1,29.85,ENE,76,1.1,1.1,91,0.00,CLR,,0.00,WeatherDisplay:10.37,2013-06-04 05:22:00,
2013-06-04 00:27:00,75.8,73.0,29.85,ESE,116,2.3,2.3,91,0.00,CLR,,0.00,WeatherDisplay:10.37,2013-06-04 05:27:00,
2013-06-04 00:32:00,75.7,73.2,29.85,ESE,116,3.5,3.5,92,0.00,CLR,,0.00,WeatherDisplay:10.37,2013-06-04 05:32:00,
2013-06-04 00:37:00,75.7,73.2,29.85,ESE,117,2.3,2.3,92,0.00,CLR,,0.00,WeatherDisplay:10.37,2013-06-04 05:37:00,
2013-06-04 00:42:00,75.6,73.1,29.85,ESE,117,1.1,1.1,92,0.00,CLR,,0.00,WeatherDisplay:10.37,2013-06-04 05:42:00,
2013-06-04 00:47:00,75.5,73.0,29.85,ESE,117,1.1,1.1,92,0.00,CLR,,0.00,WeatherDisplay:10.37,2013-06-04 05:47:00,
2013-06-04 00:52:00,75.4,72.9,29.85,ESE,117,0.0,0.0,92,0.00,CLR,,0.00,WeatherDisplay:10.37,2013-06-04 05:52:00,
2013-06-04 00:57:00,75.3,72.8,29.84,ESE,117,1.1,1.1,92,0.00,CLR,,0.00,WeatherDisplay:10.37,2013-06-04 05:57:00,
2013-06-04 01:02:00,75.2,72.7,29.84,ESE,117,0.0,0.0,92,0.00,CLR,,0.00,WeatherDisplay:10.37,2013-06-04 06:02:00,
2013-06-04 01:07:00,75.1,72.6,29.84,ESE,117,0.0,0.0,92,0.00,CLR,,0.00,WeatherDisplay:10.37,2013-06-04 06:07:00,
2013-06-04 01:12:00,74.8,72.3,29.84,ESE,117,0.0,0.0,92,0.00,CLR,,0.00,WeatherDisplay:10.37,2013-06-04 06:12:00,
2013-06-04 01:17:00,74.6,72.4,29.84,ESE,117,0.0,0.0,93,0.00,CLR,,0.00,WeatherDisplay:10.37,2013-06-04 06:17:00,
2013-06-04 01:22:00,74.4,72.2,29.84,ESE,117,0.0,0.0,93,0.00,CLR,,0.00,WeatherDisplay:10.37,2013-06-04 06:22:00,
2013-06-04 01:27:00,74.2,72.0,29.84,ESE,117,0.0,0.0,93,0.00,CLR,,0.00,WeatherDisplay:10.37,2013-06-04 06:27:00,
2013-06-04 01:32:00,74.0,71.8,29.83,ESE,117,0.0,0.0,93,0.00,CLR,,0.00,WeatherDisplay:10.37,2013-06-04 06:32:00,
2013-06-04 01:37:00,73.8,71.6,29.83,ESE,117,0.0,0.0,93,0.00,CLR,,0.00,WeatherDisplay:10.37,2013-06-04 06:37:00,
2013-06-04 01:42:00,73.5,71.4,29.83,ESE,117,0.0,0.0,93,0.00,CLR,,0.00,WeatherDisplay:10.37,2013-06-04 06:42:00,
2013-06-04 01:47:00,73.3,71.5,29.83,ESE,117,0.0,0.0,94,0.00,CLR,,0.00,WeatherDisplay:10.37,2013-06-04 06:47:00,
2013-06-04 01:52:00,73.2,71.4,29.83,ESE,117,0.0,0.0,94,0.00,CLR,,0.00,WeatherDisplay:10.37,2013-06-04 06:52:00,
2013-06-04 01:57:00,72.9,71.1,29.83,ESE,117,0.0,0.0,94,0.00,CLR,,0.00,WeatherDisplay:10.37,2013-06-04 06:57:00,
2013-06-04 02:02:00,72.8,71.0,29.83,ESE,117,0.0,0.0,94,0.00,CLR,,0.00,WeatherDisplay:10.37,2013-06-04 07:02:00,
2013-06-04 02:07:00,72.7,71.2,29.83,ESE,117,0.0,0.0,95,0.00,CLR,,0.00,WeatherDisplay:10.37,2013-06-04 07:07:00,
2013-06-04 02:12:00,72.6,71.1,29.83,ESE,117,0.0,0.0,95,0.00,CLR,,0.00,WeatherDisplay:10.37,2013-06-04 07:12:00,
2013-06-04 02:17:00,72.5,71.0,29.83,ESE,117,0.0,0.0,95,0.00,CLR,,0.00,WeatherDisplay:10.37,2013-06-04 07:17:00,
2013-06-04 02:22:00,72.3,70.8,29.83,ESE,117,0.0,0.0,95,0.00,CLR,,0.00,WeatherDisplay:10.37,2013-06-04 07:22:00,
2013-06-04 02:27:00,72.1,70.6,29.83,ESE,117,0.0,0.0,95,0.00,CLR,,0.00,WeatherDisplay:10.37,2013-06-04 07:27:00,
2013-06-04 02:32:00,71.7,70.2,29.82,ESE,117,0.0,0.0,95,0.00,CLR,,0.00,WeatherDisplay:10.37,2013-06-04 07:32:00,
2013-06-04 02:37:00,71.4,69.9,29.82,ESE,117,0.0,0.0,95,0.00,CLR,,0.00,WeatherDisplay:10.37,2013-06-04 07:37:00,
2013-06-04 02:42:00,71.1,69.9,29.83,ESE,117,0.0,0.0,96,0.00,CLR,,0.00,WeatherDisplay:10.37,2013-06-04 07:42:00,
2013-06-04 02:47:00,70.9,69.7,29.83,ESE,117,0.0,0.0,96,0.00,CLR,,0.00,WeatherDisplay:10.37,2013-06-04 07:47:00,
2013-06-04 02:52:00,70.8,69.6,29.82,ESE,117,0.0,0.0,96,0.00,CLR,,0.00,WeatherDisplay:10.37,2013-06-04 07:52:00,
2013-06-04 02:57:00,70.7,69.8,29.82,ESE,117,0.0,0.0,97,0.00,CLR,,0.00,WeatherDisplay:10.37,2013-06-04 07:57:00,
2013-06-04 03:02:00,70.7,69.8,29.82,ESE,117,0.0,0.0,97,0.00,CLR,,0.00,WeatherDisplay:10.37,2013-06-04 08:02:00,
2013-06-04 03:07:00,70.6,69.7,29.82,ESE,117,0.0,0.0,97,0.00,CLR,,0.00,WeatherDisplay:10.37,2013-06-04 08:07:00,
2013-06-04 03:12:00,70.5,69.6,29.82,ESE,117,0.0,0.0,97,0.00,CLR,,0.00,WeatherDisplay:10.37,2013-06-04 08:12:00,
2013-06-04 03:17:00,70.2,69.0,29.82,ESE,117,0.0,0.0,96,0.00,CLR,,0.00,WeatherDisplay:10.37,2013-06-04 08:17:00,
2013-06-04 03:22:00,70.1,69.2,29.82,ESE,117,0.0,0.0,97,0.00,CLR,,0.00,WeatherDisplay:10.37,2013-06-04 08:22:00,
2013-06-04 03:27:00,70.0,69.1,29.83,ESE,117,0.0,0.0,97,0.00,CLR,,0.00,WeatherDisplay:10.37,2013-06-04 08:27:00,
2013-06-04 03:32:00,69.9,69.0,29.83,ESE,117,0.0,0.0,97,0.00,CLR,,0.00,WeatherDisplay:10.37,2013-06-04 08:32:00,
2013-06-04 03:37:00,69.8,68.9,29.83,ESE,117,0.0,0.0,97,0.00,CLR,,0.00,WeatherDisplay:10.37,2013-06-04 08:37:00,
2013-06-04 03:42:00,69.7,68.8,29.83,ESE,117,0.0,0.0,97,0.00,CLR,,0.00,WeatherDisplay:10.37,2013-06-04 08:42:00,
2013-06-04 03:47:00,69.7,69.1,29.83,ESE,117,0.0,0.0,98,0.00,CLR,,0.00,WeatherDisplay:10.37,2013-06-04 08:47:00,
2013-06-04 03:52:00,69.8,69.2,29.83,ESE,117,0.0,0.0,98,0.00,CLR,,0.00,WeatherDisplay:10.37,2013-06-04 08:52:00,
2013-06-04 03:57:00,69.7,69.1,29.83,ESE,117,0.0,0.0,98,0.00,CLR,,0.00,WeatherDisplay:10.37,2013-06-04 08:57:00,
2013-06-04 04:02:00,69.6,69.0,29.82,ESE,117,0.0,0.0,98,0.00,CLR,,0.00,WeatherDisplay:10.37,2013-06-04 09:02:00,
2013-06-04 04:07:00,69.5,68.9,29.82,ESE,117,0.0,0.0,98,0.00,CLR,,0.00,WeatherDisplay:10.37,2013-06-04 09:07:00,
2013-06-04 04:12:00,69.5,68.9,29.82,ESE,117,0.0,0.0,98,0.00,CLR,,0.00,WeatherDisplay:10.37,2013-06-04 09:12:00,
2013-06-04 04:17:00,69.6,69.0,29.82,ESE,117,0.0,0.0,98,0.00,CLR,,0.00,WeatherDisplay:10.37,2013-06-04 09:17:00,
2013-06-04 04:22:00,69.6,69.0,29.82,ESE,117,0.0,0.0,98,0.00,CLR,,0.00,WeatherDisplay:10.37,2013-06-04 09:22:00,
2013-06-04 04:27:00,69.6,69.0,29.82,ESE,117,0.0,0.0,98,0.00,CLR,,0.00,WeatherDisplay:10.37,2013-06-04 09:27:00,
2013-06-04 04:32:00,69.5,68.9,29.82,ESE,117,1.1,0.0,98,0.00,CLR,,0.00,WeatherDisplay:10.37,2013-06-04 09:32:00,
2013-06-04 04:37:00,69.8,69.5,29.82,ESE,117,0.0,0.0,99,0.00,CLR,,0.00,WeatherDisplay:10.37,2013-06-04 09:37:00,
2013-06-04 04:42:00,70.1,69.8,29.82,ESE,117,1.1,1.1,99,0.00,CLR,,0.00,WeatherDisplay:10.37,2013-06-04 09:42:00,
2013-06-04 04:47:00,70.2,69.6,29.82,ESE,117,0.0,0.0,98,0.00,CLR,,0.00,WeatherDisplay:10.37,2013-06-04 09:47:00,
2013-06-04 04:52:00,70.3,69.7,29.82,ESE,117,0.0,0.0,98,0.00,CLR,,0.00,WeatherDisplay:10.37,2013-06-04 09:52:00,
2013-06-04 04:57:00,70.3,70.0,29.82,ESE,117,0.0,0.0,99,0.00,CLR,,0.00,WeatherDisplay:10.37,2013-06-04 09:57:00,
2013-06-04 05:02:00,70.3,70.0,29.82,ESE,117,0.0,0.0,99,0.00,CLR,,0.00,WeatherDisplay:10.37,2013-06-04 10:02:00,
2013-06-04 05:07:00,70.4,70.1,29.82,ESE,117,0.0,0.0,99,0.00,CLR,,0.00,WeatherDisplay:10.37,2013-06-04 10:07:00,
2013-06-04 05:12:00,70.4,70.1,29.82,ESE,117,0.0,0.0,99,0.00,CLR,,0.00,WeatherDisplay:10.37,2013-06-04 10:12:00,
2013-06-04 05:17:00,70.5,70.2,29.82,ESE,117,0.0,0.0,99,0.00,CLR,,0.00,WeatherDisplay:10.37,2013-06-04 10:17:00,
2013-06-04 05:22:00,70.4,70.1,29.82,ESE,117,0.0,0.0,99,0.00,CLR,,0.00,WeatherDisplay:10.37,2013-06-04 10:22:00,
2013-06-04 05:27:00,70.5,70.2,29.82,ESE,117,0.0,0.0,99,0.00,CLR,,0.00,WeatherDisplay:10.37,2013-06-04 10:27:00,
2013-06-04 05:32:00,70.7,70.4,29.83,ESE,117,0.0,0.0,99,0.00,CLR,,0.00,WeatherDisplay:10.37,2013-06-04 10:32:00,
2013-06-04 05:37:00,70.6,70.3,29.83,ESE,117,0.0,0.0,99,0.00,CLR,,0.00,WeatherDisplay:10.37,2013-06-04 10:37:00,
2013-06-04 05:42:00,70.6,70.3,29.83,ESE,117,0.0,0.0,99,0.00,CLR,,0.00,WeatherDisplay:10.37,2013-06-04 10:42:00,
2013-06-04 05:47:00,70.6,70.3,29.83,ESE,117,0.0,0.0,99,0.00,CLR,,0.00,WeatherDisplay:10.37,2013-06-04 10:47:00,
2013-06-04 05:52:00,70.6,70.3,29.83,ESE,117,0.0,0.0,99,0.00,CLR,,0.00,WeatherDisplay:10.37,2013-06-04 10:52:00,
2013-06-04 05:57:00,70.5,70.2,29.83,ESE,117,0.0,0.0,99,0.00,CLR,,0.00,WeatherDisplay:10.37,2013-06-04 10:57:00,
2013-06-04 06:02:00,70.6,70.3,29.83,ESE,117,0.0,0.0,99,0.00,CLR,,0.00,WeatherDisplay:10.37,2013-06-04 11:02:00,
2013-06-04 06:07:00,70.4,69.8,29.83,ESE,117,0.0,0.0,98,0.00,CLR,,0.00,WeatherDisplay:10.37,2013-06-04 11:07:00,
2013-06-04 06:12:00,70.1,69.5,29.83,ESE,117,0.0,0.0,98,0.00,CLR,,0.00,WeatherDisplay:10.37,2013-06-04 11:12:00,
2013-06-04 06:17:00,69.9,69.6,29.83,ESE,117,0.0,0.0,99,0.00,CLR,,0.00,WeatherDisplay:10.37,2013-06-04 11:17:00,
2013-06-04 06:22:00,69.8,69.5,29.83,ESE,117,0.0,0.0,99,0.00,CLR,,0.00,WeatherDisplay:10.37,2013-06-04 11:22:00,
2013-06-04 06:27:00,69.5,68.9,29.83,ESE,117,0.0,0.0,98,0.00,CLR,,0.00,WeatherDisplay:10.37,2013-06-04 11:27:00,
2013-06-04 06:32:00,69.4,69.1,29.83,ESE,117,0.0,0.0,99,0.00,CLR,,0.00,WeatherDisplay:10.37,2013-06-04 11:32:00,
2013-06-04 06:37:00,69.4,69.1,29.83,ESE,117,0.0,0.0,99,0.00,CLR,,0.00,WeatherDisplay:10.37,2013-06-04 11:37:00,
2013-06-04 06:42:00,69.4,69.1,29.83,ESE,117,0.0,0.0,99,0.00,CLR,,0.00,WeatherDisplay:10.37,2013-06-04 11:42:00,
2013-06-04 06:47:00,69.4,69.1,29.84,ESE,117,0.0,0.0,99,0.00,CLR,,0.00,WeatherDisplay:10.37,2013-06-04 11:47:00,
2013-06-04 06:52:00,69.6,69.3,29.84,ESE,117,0.0,0.0,99,0.00,CLR,,0.00,WeatherDisplay:10.37,2013-06-04 11:52:00,
2013-06-04 06:57:00,69.8,69.5,29.84,ESE,117,0.0,0.0,99,0.00,CLR,,0.00,WeatherDisplay:10.37,2013-06-04 11:57:00,
2013-06-04 07:02:00,70.1,70.1,29.84,SW,225,0.0,0.0,100,0.00,CLR,,0.00,WeatherDisplay:10.37,2013-06-04 12:02:00,
2013-06-04 07:07:00,70.2,69.9,29.84,SW,225,0.0,0.0,99,0.00,CLR,,0.00,WeatherDisplay:10.37,2013-06-04 12:07:00,
2013-06-04 07:12:00,70.6,70.6,29.85,SW,225,0.0,0.0,100,0.00,CLR,,0.00,WeatherDisplay:10.37,2013-06-04 12:12:00,
2013-06-04 07:17:00,71.0,71.0,29.84,SW,225,0.0,0.0,100,0.00,CLR,,0.00,WeatherDisplay:10.37,2013-06-04 12:17:00,
2013-06-04 07:22:00,71.2,70.9,29.84,SW,225,0.0,0.0,99,0.00,CLR,,0.00,WeatherDisplay:10.37,2013-06-04 12:22:00,
2013-06-04 07:27:00,71.3,71.0,29.84,SW,225,0.0,0.0,99,0.00,CLR,,0.00,WeatherDisplay:10.37,2013-06-04 12:27:00,
2013-06-04 07:32:00,71.6,71.3,29.84,SW,225,0.0,0.0,99,0.00,CLR,,0.00,WeatherDisplay:10.37,2013-06-04 12:32:00,
2013-06-04 07:37:00,72.0,72.0,29.84,SW,225,0.0,0.0,100,0.00,CLR,,0.00,WeatherDisplay:10.37,2013-06-04 12:37:00,
2013-06-04 07:42:00,72.5,72.5,29.84,SW,225,1.1,0.0,100,0.00,CLR,,0.00,WeatherDisplay:10.37,2013-06-04 12:42:00,
2013-06-04 07:47:00,73.3,73.3,29.85,SW,225,0.0,0.0,100,0.00,CLR,,0.00,WeatherDisplay:10.37,2013-06-04 12:47:00,
2013-06-04 07:52:00,74.3,74.3,29.85,SW,225,0.0,0.0,100,0.00,CLR,,0.00,WeatherDisplay:10.37,2013-06-04 12:52:00,
2013-06-04 07:57:00,75.2,75.2,29.85,SW,225,1.1,1.1,100,0.00,CLR,,0.00,WeatherDisplay:10.37,2013-06-04 12:57:00,
2013-06-04 08:02:00,75.5,74.9,29.85,South,187,3.5,3.5,98,0.00,CLR,,0.00,WeatherDisplay:10.37,2013-06-04 13:02:00,
2013-06-04 08:07:00,76.1,75.2,29.85,SSE,153,3.5,3.5,97,0.00,CLR,,0.00,WeatherDisplay:10.37,2013-06-04 13:07:00,
2013-06-04 08:12:00,76.8,74.6,29.85,ESE,123,5.8,5.8,93,0.00,CLR,,0.00,WeatherDisplay:10.37,2013-06-04 13:12:00,
2013-06-04 08:17:00,77.5,74.7,29.85,SSE,161,3.5,3.5,91,0.00,CLR,,0.00,WeatherDisplay:10.37,2013-06-04 13:17:00,
2013-06-04 08:22:00,78.1,74.6,29.85,SE,135,4.6,4.6,89,0.00,CLR,,0.00,WeatherDisplay:10.37,2013-06-04 13:22:00,
2013-06-04 08:27:00,78.6,74.4,29.85,SSE,147,3.5,3.5,87,0.00,CLR,,0.00,WeatherDisplay:10.37,2013-06-04 13:27:00,
2013-06-04 08:32:00,79.0,74.1,29.85,SE,135,6.9,6.9,85,0.00,CLR,,0.00,WeatherDisplay:10.37,2013-06-04 13:32:00,
2013-06-04 08:37:00,79.4,74.1,29.85,ESE,117,4.6,4.6,84,0.00,CLR,,0.00,WeatherDisplay:10.37,2013-06-04 13:37:00,
2013-06-04 08:42:00,79.7,74.1,29.85,SSE,155,5.8,5.8,83,0.00,CLR,,0.00,WeatherDisplay:10.37,2013-06-04 13:42:00,
2013-06-04 08:47:00,79.8,73.8,29.86,SE,145,3.5,3.5,82,0.00,CLR,,0.00,WeatherDisplay:10.37,2013-06-04 13:47:00,
2013-06-04 08:52:00,80.1,74.1,29.86,South,175,5.8,5.8,82,0.00,CLR,,0.00,WeatherDisplay:10.37,2013-06-04 13:52:00,
2013-06-04 08:57:00,80.2,74.2,29.86,SSE,152,5.8,5.8,82,0.00,CLR,,0.00,WeatherDisplay:10.37,2013-06-04 13:57:00,
2013-06-04 09:02:00,80.7,74.3,29.86,SSE,147,5.8,5.8,81,0.00,CLR,,0.00,WeatherDisplay:10.37,2013-06-04 14:02:00,
2013-06-04 09:07:00,80.7,74.0,29.86,SE,137,5.8,5.8,80,0.00,CLR,,0.00,WeatherDisplay:10.37,2013-06-04 14:07:00,
2013-06-04 09:12:00,80.6,74.2,29.86,East,99,5.8,5.8,81,0.00,CLR,,0.00,WeatherDisplay:10.37,2013-06-04 14:12:00,
2013-06-04 09:17:00,80.8,74.0,29.86,SE,124,5.8,5.8,80,0.00,CLR,,0.00,WeatherDisplay:10.37,2013-06-04 14:17:00,
2013-06-04 09:22:00,81.5,74.7,29.86,South,172,1.1,2.4,80,0.00,CLR,,0.00,WeatherDisplay:10.37,2013-06-04 14:22:00,
2013-06-04 09:27:00,82.1,74.2,29.86,SE,128,9.2,9.2,77,0.00,CLR,,0.00,WeatherDisplay:10.37,2013-06-04 14:27:00,
2013-06-04 09:32:00,82.0,73.7,29.86,SSE,154,5.8,5.8,76,0.00,CLR,,0.00,WeatherDisplay:10.37,2013-06-04 14:32:00,
2013-06-04 09:37:00,82.4,74.1,29.86,SE,146,3.5,3.5,76,0.00,CLR,,0.00,WeatherDisplay:10.37,2013-06-04 14:37:00,
2013-06-04 09:42:00,82.6,74.3,29.86,ESE,112,5.8,5.8,76,0.00,CLR,,0.00,WeatherDisplay:10.37,2013-06-04 14:42:00,
2013-06-04 09:47:00,82.9,74.2,29.86,ESE,105,5.8,5.8,75,0.00,CLR,,0.00,WeatherDisplay:10.37,2013-06-04 14:47:00,
2013-06-04 09:52:00,82.9,74.2,29.86,SE,131,5.8,5.8,75,0.00,CLR,,0.00,WeatherDisplay:10.37,2013-06-04 14:52:00,
2013-06-04 09:57:00,82.5,74.6,29.86,SSW,196,3.5,3.5,77,0.00,CLR,,0.00,WeatherDisplay:10.37,2013-06-04 14:57:00,
2013-06-04 10:02:00,82.3,74.7,29.86,South,169,3.5,3.5,78,0.00,CLR,,0.00,WeatherDisplay:10.37,2013-06-04 15:02:00,
2013-06-04 10:07:00,82.2,75.0,29.86,South,185,3.5,3.5,79,0.00,CLR,,0.00,WeatherDisplay:10.37,2013-06-04 15:07:00,
2013-06-04 10:12:00,81.9,74.4,29.86,South,182,4.6,4.6,78,0.00,CLR,,0.00,WeatherDisplay:10.37,2013-06-04 15:12:00,
2013-06-04 10:17:00,81.9,74.4,29.86,SSE,150,1.1,1.1,78,0.00,CLR,,0.00,WeatherDisplay:10.37,2013-06-04 15:17:00,
2013-06-04 10:22:00,82.0,74.5,29.86,South,184,3.5,3.5,78,0.00,CLR,,0.00,WeatherDisplay:10.37,2013-06-04 15:22:00,
2013-06-04 10:27:00,82.0,75.2,29.86,SE,128,5.8,5.9,80,0.00,CLR,,0.00,WeatherDisplay:10.37,2013-06-04 15:27:00,
2013-06-04 10:32:00,82.4,74.8,29.86,SE,131,5.8,5.8,78,0.00,CLR,,0.00,WeatherDisplay:10.37,2013-06-04 15:32:00,
2013-06-04 10:37:00,82.7,74.4,29.86,WSW,250,5.8,5.8,76,0.00,CLR,,0.00,WeatherDisplay:10.37,2013-06-04 15:37:00,
2013-06-04 10:42:00,83.5,74.7,29.86,SSE,165,5.8,5.8,75,0.00,CLR,,0.00,WeatherDisplay:10.37,2013-06-04 15:42:00,
2013-06-04 10:47:00,84.2,75.0,29.86,South,184,5.3,5.3,74,0.00,CLR,,0.00,WeatherDisplay:10.37,2013-06-04 15:47:00,
2013-06-04 10:52:00,84.3,75.1,29.86,SSE,166,4.6,4.6,74,0.00,CLR,,0.00,WeatherDisplay:10.37,2013-06-04 15:52:00,
2013-06-04 10:57:00,84.3,75.1,29.86,East,91,5.8,5.8,74,0.00,CLR,,0.00,WeatherDisplay:10.37,2013-06-04 15:57:00,
2013-06-04 11:02:00,84.3,74.3,29.86,East,97,10.4,10.4,72,0.00,CLR,,0.00,WeatherDisplay:10.37,2013-06-04 16:02:00,
2013-06-04 11:07:00,84.5,74.1,29.86,SE,143,5.8,5.8,71,0.00,CLR,,0.00,WeatherDisplay:10.37,2013-06-04 16:07:00,
2013-06-04 11:12:00,84.5,74.5,29.86,SE,145,5.8,5.8,72,0.00,CLR,,0.00,WeatherDisplay:10.37,2013-06-04 16:12:00,
2013-06-04 11:17:00,84.7,74.7,29.86,SSE,160,5.8,5.8,72,0.00,CLR,,0.00,WeatherDisplay:10.37,2013-06-04 16:17:00,
2013-06-04 11:22:00,85.0,75.0,29.86,ESE,121,5.8,5.8,72,0.00,CLR,,0.00,WeatherDisplay:10.37,2013-06-04 16:22:00,
2013-06-04 11:27:00,85.0,75.0,29.86,ESE,110,4.6,4.6,72,0.00,CLR,,0.00,WeatherDisplay:10.37,2013-06-04 16:27:00,
2013-06-04 11:32:00,84.7,74.3,29.87,SSE,157,5.8,5.8,71,0.00,CLR,,0.00,WeatherDisplay:10.37,2013-06-04 16:32:00,
2013-06-04 11:37:00,84.4,74.4,29.87,ESE,118,3.5,3.5,72,0.00,CLR,,0.00,WeatherDisplay:10.37,2013-06-04 16:37:00,
2013-06-04 11:42:00,84.2,74.2,29.87,East,96,5.8,5.8,72,0.00,CLR,,0.00,WeatherDisplay:10.37,2013-06-04 16:42:00,
2013-06-04 11:47:00,84.2,74.2,29.87,East,101,6.9,6.9,72,0.00,CLR,,0.00,WeatherDisplay:10.37,2013-06-04 16:47:00,
2013-06-04 11:52:00,84.6,74.6,29.87,South,181,5.8,5.8,72,0.00,CLR,,0.00,WeatherDisplay:10.37,2013-06-04 16:52:00,
2013-06-04 11:57:00,85.1,74.6,29.87,SE,128,4.6,4.6,71,0.00,CLR,,0.00,WeatherDisplay:10.37,2013-06-04 16:57:00,
2013-06-04 12:02:00,84.8,74.3,29.87,ESE,120,3.5,4.3,71,0.00,CLR,,0.00,WeatherDisplay:10.37,2013-06-04 17:02:00,
2013-06-04 12:07:00,84.2,73.3,29.86,SE,137,9.2,9.2,70,0.00,CLR,,0.00,WeatherDisplay:10.37,2013-06-04 17:07:00,
2013-06-04 12:12:00,84.0,73.2,29.86,ESE,103,9.2,9.2,70,0.00,CLR,,0.00,WeatherDisplay:10.37,2013-06-04 17:12:00,
2013-06-04 12:17:00,84.3,73.9,29.86,SSE,162,5.8,5.8,71,0.00,CLR,,0.00,WeatherDisplay:10.37,2013-06-04 17:17:00,
2013-06-04 12:22:00,84.6,74.6,29.86,ENE,63,9.2,9.2,72,0.00,CLR,,0.00,WeatherDisplay:10.37,2013-06-04 17:22:00,
2013-06-04 12:27:00,85.0,74.1,29.86,SE,125,5.8,5.8,70,0.00,CLR,,0.00,WeatherDisplay:10.37,2013-06-04 17:27:00,
2013-06-04 12:32:00,84.9,74.0,29.86,ESE,103,6.9,6.9,70,0.00,CLR,,0.00,WeatherDisplay:10.37,2013-06-04 17:32:00,
2013-06-04 12:37:00,84.7,73.8,29.86,ESE,110,4.6,5.5,70,0.00,CLR,,0.00,WeatherDisplay:10.37,2013-06-04 17:37:00,
2013-06-04 12:42:00,84.6,73.7,29.86,ENE,77,9.2,9.2,70,0.00,CLR,,0.00,WeatherDisplay:10.37,2013-06-04 17:42:00,
2013-06-04 12:47:00,84.6,73.7,29.86,East,79,5.8,5.8,70,0.00,CLR,,0.00,WeatherDisplay:10.37,2013-06-04 17:47:00,
2013-06-04 12:52:00,84.7,73.8,29.86,East,101,5.8,5.8,70,0.00,CLR,,0.00,WeatherDisplay:10.37,2013-06-04 17:52:00,
2013-06-04 12:57:00,84.8,73.9,29.86,SE,138,7.4,7.4,70,0.00,CLR,,0.00,WeatherDisplay:10.37,2013-06-04 17:57:00,
2013-06-04 13:02:00,84.6,73.7,29.86,SE,132,10.4,10.4,70,0.00,CLR,,0.00,WeatherDisplay:10.37,2013-06-04 18:02:00,
2013-06-04 13:07:00,84.8,73.5,29.86,ESE,115,6.9,6.9,69,0.00,CLR,,0.00,WeatherDisplay:10.37,2013-06-04 18:07:00,
2013-06-04 13:12:00,84.8,74.3,29.86,SE,134,5.8,5.8,71,0.00,CLR,,0.00,WeatherDisplay:10.37,2013-06-04 18:12:00,
2013-06-04 13:17:00,84.9,73.6,29.86,East,98,8.1,8.1,69,0.00,CLR,,0.00,WeatherDisplay:10.37,2013-06-04 18:17:00,
2013-06-04 13:22:00,84.6,73.3,29.85,ENE,77,6.9,6.9,69,0.00,CLR,,0.00,WeatherDisplay:10.37,2013-06-04 18:22:00,
2013-06-04 13:27:00,84.7,73.8,29.85,East,84,5.8,5.8,70,0.00,CLR,,0.00,WeatherDisplay:10.37,2013-06-04 18:27:00,
2013-06-04 13:32:00,85.3,74.4,29.85,ENE,70,5.8,5.8,70,0.00,CLR,,0.00,WeatherDisplay:10.37,2013-06-04 18:32:00,
2013-06-04 13:37:00,85.6,74.3,29.85,NE,47,5.8,5.8,69,0.00,CLR,,0.00,WeatherDisplay:10.37,2013-06-04 18:37:00,
2013-06-04 13:42:00,85.5,73.7,29.85,ESE,113,5.8,5.8,68,0.00,CLR,,0.00,WeatherDisplay:10.37,2013-06-04 18:42:00,
2013-06-04 13:47:00,85.2,73.4,29.85,SSE,150,3.5,3.5,68,0.00,CLR,,0.00,WeatherDisplay:10.37,2013-06-04 18:47:00,
2013-06-04 13:52:00,85.0,73.7,29.85,East,98,8.1,8.1,69,0.00,CLR,,0.00,WeatherDisplay:10.37,2013-06-04 18:52:00,
2013-06-04 13:57:00,85.1,73.8,29.85,ESE,120,6.3,6.6,69,0.00,CLR,,0.00,WeatherDisplay:10.37,2013-06-04 18:57:00,
2013-06-04 14:02:00,85.0,73.7,29.85,SSE,147,11.5,11.5,69,0.00,CLR,,0.00,WeatherDisplay:10.37,2013-06-04 19:02:00,
2013-06-04 14:07:00,85.2,74.3,29.84,ESE,120,5.8,5.8,70,0.00,CLR,,0.00,WeatherDisplay:10.37,2013-06-04 19:07:00,
2013-06-04 14:12:00,84.9,73.6,29.84,North,4,5.8,5.8,69,0.00,CLR,,0.00,WeatherDisplay:10.37,2013-06-04 19:12:00,
2013-06-04 14:17:00,84.9,73.6,29.84,SE,124,6.9,6.9,69,0.00,CLR,,0.00,WeatherDisplay:10.37,2013-06-04 19:17:00,
2013-06-04 14:22:00,85.0,73.7,29.83,East,83,6.9,6.9,69,0.00,CLR,,0.00,WeatherDisplay:10.37,2013-06-04 19:22:00,
2013-06-04 14:28:00,85.0,74.1,29.83,East,94,10.4,10.4,70,0.00,CLR,,0.00,WeatherDisplay:10.37,2013-06-04 19:28:00,
2013-06-04 14:33:00,85.0,73.7,29.83,ESE,115,5.8,5.8,69,0.00,CLR,,0.00,WeatherDisplay:10.37,2013-06-04 19:33:00,
2013-06-04 14:38:00,85.1,73.8,29.83,ESE,104,9.2,9.2,69,0.00,CLR,,0.00,WeatherDisplay:10.37,2013-06-04 19:38:00,
2013-06-04 14:43:00,85.5,74.6,29.83,SE,143,5.8,5.8,70,0.00,CLR,,0.00,WeatherDisplay:10.37,2013-06-04 19:43:00,
2013-06-04 14:48:00,85.2,73.9,29.83,SE,146,11.5,11.5,69,0.00,CLR,,0.00,WeatherDisplay:10.37,2013-06-04 19:48:00,
2013-06-04 14:53:00,85.3,74.8,29.83,East,100,6.9,6.9,71,0.00,CLR,,0.00,WeatherDisplay:10.37,2013-06-04 19:53:00,
2013-06-04 14:58:00,85.4,74.5,29.83,ESE,108,5.8,5.8,70,0.00,CLR,,0.00,WeatherDisplay:10.37,2013-06-04 19:58:00,
2013-06-04 15:03:00,85.6,74.3,29.83,SE,139,5.8,5.8,69,0.00,CLR,,0.00,WeatherDisplay:10.37,2013-06-04 20:03:00,
2013-06-04 15:08:00,85.6,75.1,29.83,ESE,123,5.8,5.8,71,0.00,CLR,,0.00,WeatherDisplay:10.37,2013-06-04 20:08:00,
2013-06-04 15:13:00,85.4,74.5,29.82,East,84,9.2,9.2,70,0.00,CLR,,0.00,WeatherDisplay:10.37,2013-06-04 20:13:00,
2013-06-04 15:18:00,85.4,74.1,29.82,ESE,110,3.5,3.5,69,0.00,CLR,,0.00,WeatherDisplay:10.37,2013-06-04 20:18:00,
2013-06-04 15:23:00,85.9,74.1,29.82,ESE,105,4.6,4.6,68,0.00,CLR,,0.00,WeatherDisplay:10.37,2013-06-04 20:23:00,
2013-06-04 15:28:00,86.3,74.0,29.82,ESE,108,5.8,5.8,67,0.00,CLR,,0.00,WeatherDisplay:10.37,2013-06-04 20:28:00,
2013-06-04 15:33:00,85.9,74.1,29.82,ESE,117,5.8,5.8,68,0.00,CLR,,0.00,WeatherDisplay:10.37,2013-06-04 20:33:00,
2013-06-04 15:38:00,86.0,74.6,29.82,ENE,73,13.8,13.8,69,0.00,CLR,,0.00,WeatherDisplay:10.37,2013-06-04 20:38:00,
2013-06-04 15:43:00,86.1,74.3,29.82,South,174,7.4,7.4,68,0.00,CLR,,0.00,WeatherDisplay:10.37,2013-06-04 20:43:00,
2013-06-04 15:48:00,85.9,74.5,29.82,East,96,8.1,8.1,69,0.00,CLR,,0.00,WeatherDisplay:10.37,2013-06-04 20:48:00,
2013-06-04 15:53:00,85.4,74.1,29.82,SSE,148,8.1,8.1,69,0.00,CLR,,0.00,WeatherDisplay:10.37,2013-06-04 20:53:00,
2013-06-04 15:58:00,85.1,73.8,29.82,ESE,107,5.8,5.8,69,0.00,CLR,,0.00,WeatherDisplay:10.37,2013-06-04 20:58:00,
2013-06-04 16:03:00,85.3,74.4,29.82,NE,36,10.4,10.4,70,0.00,CLR,,0.00,WeatherDisplay:10.37,2013-06-04 21:03:00,
2013-06-04 16:08:00,85.2,73.9,29.82,SE,141,8.1,8.1,69,0.00,CLR,,0.00,WeatherDisplay:10.37,2013-06-04 21:08:00,
2013-06-04 16:13:00,85.4,74.1,29.82,ENE,68,9.2,9.2,69,0.00,CLR,,0.00,WeatherDisplay:10.37,2013-06-04 21:13:00,
2013-06-04 16:18:00,85.1,74.2,29.82,East,99,5.8,5.8,70,0.00,CLR,,0.00,WeatherDisplay:10.37,2013-06-04 21:18:00,
2013-06-04 16:23:00,85.0,73.7,29.82,SSE,164,9.2,9.2,69,0.00,CLR,,0.00,WeatherDisplay:10.37,2013-06-04 21:23:00,
2013-06-04 16:28:00,84.8,74.3,29.82,East,90,10.4,10.4,71,0.00,CLR,,0.00,WeatherDisplay:10.37,2013-06-04 21:28:00,
2013-06-04 16:33:00,84.6,74.6,29.81,ESE,110,12.7,12.7,72,0.00,CLR,,0.00,WeatherDisplay:10.37,2013-06-04 21:33:00,
2013-06-04 16:38:00,84.4,74.4,29.81,East,94,6.9,6.9,72,0.00,CLR,,0.00,WeatherDisplay:10.37,2013-06-04 21:38:00,
2013-06-04 16:43:00,84.3,74.7,29.81,ENE,75,9.2,9.2,73,0.00,CLR,,0.00,WeatherDisplay:10.37,2013-06-04 21:43:00,
2013-06-04 16:48:00,84.5,74.5,29.81,NE,45,5.8,5.8,72,0.00,CLR,,0.00,WeatherDisplay:10.37,2013-06-04 21:48:00,
2013-06-04 16:53:00,84.1,74.5,29.81,East,85,10.4,10.4,73,0.00,CLR,,0.00,WeatherDisplay:10.37,2013-06-04 21:53:00,
2013-06-04 16:58:00,83.9,74.3,29.81,NE,43,5.8,5.8,73,0.00,CLR,,0.00,WeatherDisplay:10.37,2013-06-04 21:58:00,
2013-06-04 17:03:00,83.7,73.7,29.81,East,98,11.5,11.5,72,0.00,CLR,,0.00,WeatherDisplay:10.37,2013-06-04 22:03:00,
2013-06-04 17:08:00,83.6,74.0,29.80,ESE,110,5.8,5.8,73,0.00,CLR,,0.00,WeatherDisplay:10.37,2013-06-04 22:08:00,
2013-06-04 17:13:00,83.6,74.0,29.80,East,91,6.9,6.9,73,0.00,CLR,,0.00,WeatherDisplay:10.37,2013-06-04 22:13:00,
2013-06-04 17:18:00,83.7,74.1,29.80,ENE,58,5.8,5.8,73,0.00,CLR,,0.00,WeatherDisplay:10.37,2013-06-04 22:18:00,
2013-06-04 17:23:00,83.7,74.1,29.80,ESE,121,9.2,9.2,73,0.00,CLR,,0.00,WeatherDisplay:10.37,2013-06-04 22:23:00,
2013-06-04 17:28:00,83.6,74.0,29.80,SE,124,8.1,8.1,73,0.00,CLR,,0.00,WeatherDisplay:10.37,2013-06-04 22:28:00,
2013-06-04 17:33:00,83.6,74.4,29.80,ESE,115,6.9,6.9,74,0.00,CLR,,0.00,WeatherDisplay:10.37,2013-06-04 22:33:00,
2013-06-04 17:38:00,83.7,74.1,29.80,East,79,5.8,5.8,73,0.00,CLR,,0.00,WeatherDisplay:10.37,2013-06-04 22:38:00,
2013-06-04 17:43:00,83.5,73.9,29.79,SE,138,11.5,11.5,73,0.00,CLR,,0.00,WeatherDisplay:10.37,2013-06-04 22:43:00,
2013-06-04 17:48:00,83.4,74.2,29.79,East,98,12.7,12.7,74,0.00,CLR,,0.00,WeatherDisplay:10.37,2013-06-04 22:48:00,
2013-06-04 17:53:00,83.5,74.3,29.79,East,94,5.8,5.8,74,0.00,CLR,,0.00,WeatherDisplay:10.37,2013-06-04 22:53:00,
2013-06-04 17:58:00,83.4,74.2,29.79,ENE,60,10.4,10.4,74,0.00,CLR,,0.00,WeatherDisplay:10.37,2013-06-04 22:58:00,
2013-06-04 18:03:00,82.9,74.2,29.79,SSE,154,6.9,6.9,75,0.00,CLR,,0.00,WeatherDisplay:10.37,2013-06-04 23:03:00,
2013-06-04 18:08:00,82.5,73.8,29.79,ESE,105,6.9,6.9,75,0.00,CLR,,0.00,WeatherDisplay:10.37,2013-06-04 23:08:00,
2013-06-04 18:13:00,82.4,73.7,29.80,SE,125,5.8,5.8,75,0.00,CLR,,0.00,WeatherDisplay:10.37,2013-06-04 23:13:00,
2013-06-04 18:18:00,82.5,73.8,29.79,ESE,103,9.2,9.2,75,0.00,CLR,,0.00,WeatherDisplay:10.37,2013-06-04 23:18:00,
2013-06-04 18:23:00,82.6,73.9,29.79,ENE,57,9.2,9.2,75,0.00,CLR,,0.00,WeatherDisplay:10.37,2013-06-04 23:23:00,
2013-06-04 18:28:00,82.4,73.3,29.80,ESE,104,6.9,6.9,74,0.00,CLR,,0.00,WeatherDisplay:10.37,2013-06-04 23:28:00,
2013-06-04 18:33:00,82.4,73.7,29.80,ESE,104,9.2,9.2,75,0.00,CLR,,0.00,WeatherDisplay:10.37,2013-06-04 23:33:00,
2013-06-04 18:38:00,82.3,73.6,29.80,ESE,112,11.5,11.5,75,0.00,CLR,,0.00,WeatherDisplay:10.37,2013-06-04 23:38:00,
2013-06-04 18:43:00,82.2,73.5,29.80,SE,129,4.6,4.6,75,0.00,CLR,,0.00,WeatherDisplay:10.37,2013-06-04 23:43:00,
2013-06-04 18:48:00,82.2,73.5,29.80,ESE,113,5.8,5.8,75,0.00,CLR,,0.00,WeatherDisplay:10.37,2013-06-04 23:48:00,
2013-06-04 18:53:00,82.0,73.3,29.80,ENE,72,5.8,5.8,75,0.00,CLR,,0.00,WeatherDisplay:10.37,2013-06-04 23:53:00,
2013-06-04 18:58:00,81.8,73.1,29.80,ESE,111,6.9,6.9,75,0.00,CLR,,0.00,WeatherDisplay:10.37,2013-06-04 23:58:00,
2013-06-04 19:03:00,81.7,73.4,29.80,ESE,102,5.8,5.8,76,0.00,CLR,,0.00,WeatherDisplay:10.37,2013-06-05 00:03:00,
2013-06-04 19:08:00,81.6,73.7,29.80,East,98,9.2,9.2,77,0.00,CLR,,0.00,WeatherDisplay:10.37,2013-06-05 00:08:00,
2013-06-04 19:13:00,81.3,73.4,29.80,ENE,77,6.9,6.9,77,0.00,CLR,,0.00,WeatherDisplay:10.37,2013-06-05 00:13:00,
2013-06-04 19:18:00,81.2,72.9,29.80,ESE,105,5.8,5.8,76,0.00,CLR,,0.00,WeatherDisplay:10.37,2013-06-05 00:18:00,
2013-06-04 19:23:00,81.2,73.3,29.80,East,94,6.9,6.9,77,0.00,CLR,,0.00,WeatherDisplay:10.37,2013-06-05 00:23:00,
2013-06-04 19:28:00,81.0,73.1,29.80,ESE,104,6.9,6.9,77,0.00,CLR,,0.00,WeatherDisplay:10.37,2013-06-05 00:28:00,
2013-06-04 19:33:00,80.9,73.0,29.80,East,95,5.8,5.8,77,0.00,CLR,,0.00,WeatherDisplay:10.37,2013-06-05 00:33:00,
2013-06-04 19:38:00,80.7,73.2,29.80,ESE,102,5.8,5.8,78,0.00,CLR,,0.00,WeatherDisplay:10.37,2013-06-05 00:38:00,
2013-06-04 19:43:00,80.5,73.0,29.80,ESE,109,5.8,5.8,78,0.00,CLR,,0.00,WeatherDisplay:10.37,2013-06-05 00:43:00,
2013-06-04 19:48:00,80.2,73.1,29.80,East,98,4.6,4.6,79,0.00,CLR,,0.00,WeatherDisplay:10.37,2013-06-05 00:48:00,
2013-06-04 19:53:00,80.0,72.9,29.80,ESE,120,6.9,6.9,79,0.00,CLR,,0.00,WeatherDisplay:10.37,2013-06-05 00:53:00,
2013-06-04 19:58:00,79.7,72.6,29.80,East,86,3.5,3.5,79,0.00,CLR,,0.00,WeatherDisplay:10.37,2013-06-05 00:58:00,
2013-06-04 20:03:00,79.4,72.7,29.80,ESE,119,6.9,6.9,80,0.00,CLR,,0.00,WeatherDisplay:10.37,2013-06-05 01:03:00,
2013-06-04 20:08:00,79.2,72.5,29.80,ESE,122,4.6,4.6,80,0.00,CLR,,0.00,WeatherDisplay:10.37,2013-06-05 01:08:00,
2013-06-04 20:13:00,79.0,72.3,29.80,East,82,3.5,3.5,80,0.00,CLR,,0.00,WeatherDisplay:10.37,2013-06-05 01:13:00,
2013-06-04 20:18:00,78.8,72.5,29.81,East,89,5.8,5.8,81,0.00,CLR,,0.00,WeatherDisplay:10.37,2013-06-05 01:18:00,
2013-06-04 20:23:00,78.7,72.4,29.81,SE,134,4.6,4.6,81,0.00,CLR,,0.00,WeatherDisplay:10.37,2013-06-05 01:23:00,
2013-06-04 20:28:00,78.6,72.6,29.82,East,101,5.8,5.8,82,0.00,CLR,,0.00,WeatherDisplay:10.37,2013-06-05 01:28:00,
2013-06-04 20:33:00,78.5,72.5,29.82,ESE,105,5.8,5.8,82,0.00,CLR,,0.00,WeatherDisplay:10.37,2013-06-05 01:33:00,
2013-06-04 20:38:00,78.5,72.9,29.82,ESE,121,4.6,4.6,83,0.00,CLR,,0.00,WeatherDisplay:10.37,2013-06-05 01:38:00,
2013-06-04 20:43:00,78.4,72.8,29.81,East,91,5.8,5.8,83,0.00,CLR,,0.00,WeatherDisplay:10.37,2013-06-05 01:43:00,
2013-06-04 20:48:00,78.3,72.7,29.82,SE,126,4.6,4.6,83,0.00,CLR,,0.00,WeatherDisplay:10.37,2013-06-05 01:48:00,
2013-06-04 20:53:00,78.4,72.8,29.82,East,96,9.2,9.2,83,0.00,CLR,,0.00,WeatherDisplay:10.37,2013-06-05 01:53:00,
2013-06-04 20:58:00,78.3,72.7,29.82,ESE,115,5.8,5.8,83,0.00,CLR,,0.00,WeatherDisplay:10.37,2013-06-05 01:58:00,
2013-06-04 21:03:00,78.1,72.5,29.82,ESE,123,5.8,5.8,83,0.00,CLR,,0.00,WeatherDisplay:10.37,2013-06-05 02:03:00,
2013-06-04 21:08:00,78.1,72.5,29.82,East,101,5.8,5.8,83,0.00,CLR,,0.00,WeatherDisplay:10.37,2013-06-05 02:08:00,
2013-06-04 21:13:00,78.0,72.4,29.82,ESE,120,6.9,6.9,83,0.00,CLR,,0.00,WeatherDisplay:10.37,2013-06-05 02:13:00,
2013-06-04 21:18:00,78.0,72.4,29.82,SSE,161,9.2,9.2,83,0.00,CLR,,0.00,WeatherDisplay:10.37,2013-06-05 02:18:00,
2013-06-04 21:23:00,78.1,72.5,29.82,ESE,110,3.5,3.5,83,0.00,CLR,,0.00,WeatherDisplay:10.37,2013-06-05 02:23:00,
2013-06-04 21:28:00,78.1,72.5,29.82,East,91,5.8,5.8,83,0.00,CLR,,0.00,WeatherDisplay:10.37,2013-06-05 02:28:00,
2013-06-04 21:33:00,78.1,72.5,29.82,East,84,5.8,5.8,83,0.00,CLR,,0.00,WeatherDisplay:10.37,2013-06-05 02:33:00,
2013-06-04 21:38:00,78.1,72.9,29.82,SE,143,4.6,4.6,84,0.00,CLR,,0.00,WeatherDisplay:10.37,2013-06-05 02:38:00,
2013-06-04 21:43:00,78.0,72.8,29.82,East,92,3.5,3.5,84,0.00,CLR,,0.00,WeatherDisplay:10.37,2013-06-05 02:43:00,
2013-06-04 21:48:00,78.0,72.8,29.82,ESE,103,5.8,5.8,84,0.00,CLR,,0.00,WeatherDisplay:10.37,2013-06-05 02:48:00,
2013-06-04 21:53:00,78.0,72.8,29.83,ESE,117,5.8,5.8,84,0.00,CLR,,0.00,WeatherDisplay:10.37,2013-06-05 02:53:00,
2013-06-04 21:58:00,77.9,72.7,29.83,East,101,4.6,4.6,84,0.00,CLR,,0.00,WeatherDisplay:10.37,2013-06-05 02:58:00,
2013-06-04 22:03:00,77.8,72.9,29.83,SE,130,4.6,4.6,85,0.00,CLR,,0.00,WeatherDisplay:10.37,2013-06-05 03:03:00,
2013-06-04 22:08:00,77.7,72.8,29.83,SE,133,4.6,4.6,85,0.00,CLR,,0.00,WeatherDisplay:10.37,2013-06-05 03:08:00,
2013-06-04 22:13:00,77.7,72.8,29.83,SE,124,9.2,9.2,85,0.00,CLR,,0.00,WeatherDisplay:10.37,2013-06-05 03:13:00,
2013-06-04 22:18:00,77.7,72.5,29.83,ESE,115,3.5,3.5,84,0.00,CLR,,0.00,WeatherDisplay:10.37,2013-06-05 03:18:00,
2013-06-04 22:23:00,77.7,72.5,29.83,ESE,112,5.8,5.8,84,0.00,CLR,,0.00,WeatherDisplay:10.37,2013-06-05 03:23:00,
2013-06-04 22:28:00,77.8,72.6,29.83,SE,127,3.5,3.5,84,0.00,CLR,,0.00,WeatherDisplay:10.37,2013-06-05 03:28:00,
2013-06-04 22:33:00,77.8,72.6,29.83,ESE,103,4.6,4.6,84,0.00,CLR,,0.00,WeatherDisplay:10.37,2013-06-05 03:33:00,
2013-06-04 22:38:00,77.8,72.6,29.83,ESE,102,3.5,3.5,84,0.00,CLR,,0.00,WeatherDisplay:10.37,2013-06-05 03:38:00,
2013-06-04 22:43:00,77.7,72.8,29.83,ESE,113,6.9,6.9,85,0.00,CLR,,0.00,WeatherDisplay:10.37,2013-06-05 03:43:00,
2013-06-04 22:48:00,77.7,72.5,29.83,East,98,5.8,5.8,84,0.00,CLR,,0.00,WeatherDisplay:10.37,2013-06-05 03:48:00,
2013-06-04 22:53:00,77.8,72.6,29.83,SE,139,6.3,6.3,84,0.00,CLR,,0.00,WeatherDisplay:10.37,2013-06-05 03:53:00,
2013-06-04 22:58:00,77.8,72.6,29.83,SE,141,4.6,4.6,84,0.00,CLR,,0.00,WeatherDisplay:10.37,2013-06-05 03:58:00,
2013-06-04 23:01:00,77.8,72.6,29.83,SE,139,5.8,5.8,84,0.00,CLR,,0.00,WeatherDisplay:10.37,2013-06-05 04:01:00,
2013-06-04 23:02:00,77.8,72.6,29.83,SSE,153,4.6,4.6,84,0.00,CLR,,0.00,WeatherDisplay:10.37,2013-06-05 04:02:00,
2013-06-04 23:07:00,77.8,72.9,29.83,SE,127,5.8,5.8,85,0.00,CLR,,0.00,WeatherDisplay:10.37,2013-06-05 04:07:00,
2013-06-04 23:12:00,78.0,73.1,29.83,SSE,150,4.6,4.6,85,0.00,CLR,,0.00,WeatherDisplay:10.37,2013-06-05 04:12:00,
2013-06-04 23:17:00,78.0,73.1,29.84,SE,129,6.9,6.9,85,0.00,CLR,,0.00,WeatherDisplay:10.37,2013-06-05 04:17:00,
2013-06-04 23:22:00,78.0,73.1,29.84,ESE,123,10.4,10.4,85,0.00,CLR,,0.00,WeatherDisplay:10.37,2013-06-05 04:22:00,
2013-06-04 23:27:00,78.0,73.1,29.84,ESE,121,5.8,5.8,85,0.00,CLR,,0.00,WeatherDisplay:10.37,2013-06-05 04:27:00,
2013-06-04 23:32:00,78.0,73.1,29.84,SE,134,9.2,9.2,85,0.00,CLR,,0.00,WeatherDisplay:10.37,2013-06-05 04:32:00,
2013-06-04 23:37:00,78.0,73.1,29.84,SE,140,4.6,4.6,85,0.00,CLR,,0.00,WeatherDisplay:10.37,2013-06-05 04:37:00,
2013-06-04 23:42:00,77.9,73.4,29.84,SE,127,6.9,6.9,86,0.00,CLR,,0.00,WeatherDisplay:10.37,2013-06-05 04:42:00,
2013-06-04 23:47:00,78.1,73.2,29.84,ESE,122,9.2,9.2,85,0.00,CLR,,0.00,WeatherDisplay:10.37,2013-06-05 04:47:00,
2013-06-04 23:52:00,78.3,73.4,29.84,ESE,120,6.9,6.9,85,0.00,CLR,,0.00,WeatherDisplay:10.37,2013-06-05 04:52:00,
2013-06-04 23:57:00,78.3,73.4,29.84,SE,135,10.4,10.4,85,0.00,CLR,,0.00,WeatherDisplay:10.37,2013-06-05 04:57:00,